Dewpoint
34 36 35 35 36 37 37 38 39 40 41 43 44 46 48 49 52 55 56 56 55 54 55 55 53 52 51 51 52 53 52 47 40 34 34 33 33 29 28 28 29 30 33
35 35 35 35 36 36 36 37 38 39 41 43 44 45 47 48 51 53 53 53 53 52 51 50 49 49 49 49 50 50 49 45 40 33 31 31 32 29 28 28 28 29 32
35 35 35 35 35 35 36 37 38 39 40 41 42 43 44 46 47 48 49 48 48 47 48 48 47 47 46 46 46 46 44 41 38 34 30 30 29 28 27 28 28 30 31
35 34 34 35 35 35 36 36 37 38 39 40 41 41 43 44 44 44 44 43 41 40 40 40 40 42 42 42 42 42 40 38 35 32 30 28 27 28 27 26 28 28 30
34 33 34 35 35 35 36 36 36 37 38 39 39 39 40 41 42 42 41 39 38 36 34 33 33 33 35 36 39 39 39 37 34 31 27 25 25 26 24 26 28 27 27
34 33 33 35 35 35 35 36 36 36 37 37 37 38 38 39 40 39 39 37 35 34 31 31 31 32 33 34 35 36 36 35 32 28 25 22 23 25 26 26 27 30 29
33 33 31 32 34 34 35 35 35 36 36 36 36 36 36 37 38 37 37 36 35 32 31 29 27 28 29 30 30 30 31 32 29 26 24 22 23 25 25 25 26 27 27
33 32 32 31 32 32 33 34 34 34 35 35 35 35 34 35 35 34 34 33 31 30 30 29 28 27 27 27 27 28 28 28 27 26 24 25 25 26 25 25 26 24 23
31 31 31 31 31 31 31 31 32 32 33 33 33 33 33 32 33 33 32 30 29 29 29 29 27 28 29 28 26 26 27 28 30 30 29 29 29 28 27 25 22 25 24
30 30 29 29 30 30 30 30 30 30 31 31 31 31 31 31 32 32 30 29 28 28 29 28 28 29 29 28 24 23 22 25 25 25 26 27 27 28 27 24 23 23 19
28 29 27 28 29 30 29 29 29 29 29 29 29 29 29 29 30 31 30 28 27 27 28 28 29 30 30 28 25 23 23 24 24 21 21 21 21 21 22 23 26 26 22
27 28 26 26 27 28 27 28 28 28 28 27 27 27 28 29 29 30 31 29 29 26 26 28 29 30 30 30 27 28 27 24 22 21 19 18 18 18 19 19 20 21 21
25 26 25 25 25 26 26 26 27 27 27 27 27 26 26 28 29 30 29 31 31 28 28 29 30 30 29 29 30 29 26 23 22 20 18 19 20 18 17 18 17 17 18
22 23 24 24 24 25 25 26 25 26 27 27 26 26 27 27 27 28 29 30 31 30 30 30 30 29 28 28 28 27 25 24 23 20 20 21 18 18 19 18 21 19 19
21 20 22 23 23 23 24 25 25 25 25 25 26 25 25 26 26 28 28 27 28 28 28 27 27 26 26 26 26 25 24 24 25 24 23 21 19 18 19 18 20 22 20
19 20 20 22 22 23 22 22 26 27 27 30 29 27 26 27 29 30 30 30 29 30 26 25 25 24 24 25 24 24 25 24 24 24 24 21 20 18 19 19 19 21 21
20 20 21 22 22 21 22 22 19 22 28 29 30 31 31 28 30 30 31 30 29 29 25 23 23 24 24 24 24 25 25 25 25 24 23 23 20 18 17 19 19 20 19
23 22 22 22 23 23 22 22 22 21 19 21 28 30 30 30 30 30 31 31 28 29 28 25 24 23 22 23 24 24 25 24 25 24 24 24 22 21 18 18 18 17 17
25 24 24 24 24 24 24 23 23 23 23 22 21 24 29 29 29 29 28 28 26 27 27 27 26 24 23 22 22 22 23 23 24 24 24 24 22 21 21 20 19 18 17
27 26 25 25 25 25 25 25 25 25 25 24 24 24 24 26 28 28 28 27 27 26 26 26 27 26 24 23 22 22 21 21 22 22 23 23 23 21 21 20 20 19 17
27 27 27 27 27 27 27 27 27 26 26 26 26 26 25 25 25 26 27 28 27 26 26 25 25 25 25 24 23 22 22 22 22 22 22 23 22 21 21 21 20 20 19
28 28 28 28 28 28 28 28 27 27 27 27 27 27 28 28 26 26 26 27 28 27 27 27 26 26 26 25 24 24 23 23 22 22 22 22 22 22 21 20 20 19 19
30 30 30 29 29 28 28 29 29 28 28 28 27 27 26 28 29 27 26 27 27 28 28 28 27 27 27 27 27 26 25 24 24 23 22 22 21 21 21 21 20 20 19
28 29 29 29 29 29 29 28 28 28 28 28 27 27 27 27 27 27 27 27 26 27 28 28 28 28 28 28 28 28 28 27 25 24 23 22 22 21 22 22 21 20 20
26 27 28 28 28 28 28 28 27 27 27 27 27 26 27 27 27 27 27 27 27 26 26 26 26 28 29 30 30 30 31 30 28 26 25 25 24 23 23 23 22 22 21
25 25 26 26 26 27 27 26 26 26 26 27 27 28 28 28 28 28 28 28 28 28 28 28 28 27 27 28 29 29 29 30 29 28 27 26 25 25 24 23 23 22 22
Wind_Speed
5 4 5 6 7 7 7 8 8 9 9 7 5 6 5 5 3 4 8 9 8 9 6 7 5 4 5 4 4 5 7 7 9 3 4 7 4 6 7 7 7 9 8
3 4 6 7 8 8 8 7 7 7 8 7 6 4 7 5 2 10 10 13 15 12 9 10 7 6 5 4 6 6 8 7 7 10 6 4 4 5 7 8 6 7 9
3 3 5 7 7 8 8 7 6 7 7 6 6 6 7 6 9 12 13 14 13 10 9 10 8 9 7 6 6 8 6 8 9 13 9 4 3 5 5 6 5 5 8
4 4 6 7 7 7 7 7 7 6 5 6 7 8 9 8 11 12 13 14 14 12 11 10 8 8 9 8 8 9 9 10 13 15 10 9 5 4 5 8 9 6 8
2 3 4 5 5 7 8 9 8 7 7 7 8 10 9 9 8 12 13 14 15 14 12 11 10 8 8 7 10 11 13 11 14 13 12 7 8 11 14 7 9 6 5
1 2 3 4 6 7 7 8 9 9 9 9 10 10 11 10 12 13 13 13 12 12 14 11 10 11 14 15 12 7 8 15 13 10 7 13 12 12 8 15 12 10 5
3 2 4 5 5 6 6 8 9 11 10 11 11 11 12 11 13 14 13 12 11 11 12 11 10 9 11 11 13 16 15 10 7 9 14 13 15 17 15 15 8 4 5
5 4 2 1 2 4 5 7 7 7 9 10 10 10 12 11 12 12 14 12 12 11 9 8 9 8 7 10 11 13 13 12 7 8 11 12 9 17 17 10 10 9 5
9 8 7 5 3 2 3 3 4 5 6 7 7 10 11 9 8 10 12 12 12 10 7 7 8 9 9 10 11 12 12 12 14 18 17 15 15 14 13 16 15 19 5
11 9 8 7 7 5 3 3 3 2 4 5 7 6 7 8 6 8 9 11 11 9 6 6 6 7 9 9 11 14 15 10 10 13 11 12 12 11 8 6 16 19 6
10 9 8 7 6 7 6 3 2 2 3 3 5 4 4 3 4 6 10 11 12 11 10 9 7 7 8 8 8 10 7 13 13 14 13 10 8 7 6 6 4 5 6
13 12 11 9 7 6 7 6 6 5 4 2 3 2 1 1 4 4 6 6 10 12 12 11 9 8 7 9 11 9 16 13 14 14 13 10 9 6 5 6 6 6 4
14 15 14 12 11 11 10 8 7 7 7 6 5 6 6 5 4 5 5 7 8 7 9 10 11 11 10 8 11 15 16 15 15 13 13 10 7 10 10 8 8 9 9
15 15 13 14 13 11 10 11 10 10 10 10 11 11 10 9 8 5 4 5 6 7 9 9 9 7 8 9 11 9 8 9 11 13 11 6 9 10 10 6 6 6 4
16 15 15 15 15 14 13 13 14 14 13 14 15 13 12 13 13 12 11 9 9 10 10 9 9 9 9 8 8 9 6 4 6 4 6 10 11 11 9 5 4 5 4
18 17 17 16 15 14 14 14 14 15 15 17 14 13 14 13 8 12 14 12 11 11 6 9 13 13 10 9 11 10 10 10 9 8 10 12 13 15 14 8 4 8 10
20 17 16 16 16 16 15 16 18 10 19 18 18 19 17 14 16 12 17 16 13 14 9 13 16 16 15 14 14 13 14 15 13 11 11 11 12 12 15 16 14 13 14
19 17 17 16 16 16 16 17 15 16 17 16 18 20 19 18 15 15 16 17 13 17 15 15 16 15 18 17 14 15 14 13 15 15 15 15 16 17 15 17 18 19 18
18 17 17 16 16 16 15 15 16 16 17 17 13 10 18 18 19 16 18 16 17 18 19 19 16 17 18 17 16 16 15 15 13 10 11 12 13 15 18 16 16 17 15
14 12 13 14 15 15 15 15 15 16 16 16 16 16 10 12 15 17 18 18 17 16 16 17 17 16 15 16 15 15 16 15 15 16 16 15 14 15 16 15 16 15 18
12 11 13 11 12 12 12 15 13 14 15 15 14 12 16 18 18 17 17 18 19 18 17 17 15 14 15 15 15 15 17 16 16 16 15 16 15 18 17 15 15 16 15
10 10 11 12 11 11 12 12 12 13 14 14 12 11 15 16 14 15 15 16 15 16 14 14 15 15 15 16 17 16 18 17 15 16 17 15 15 16 15 17 17 17 16
5 6 8 8 9 9 10 11 11 11 11 12 12 13 12 12 12 13 13 12 12 13 13 14 15 14 13 15 15 17 17 17 17 15 16 16 17 16 16 17 17 16 17
1 4 7 6 6 7 8 9 10 11 10 11 11 11 11 11 11 12 11 11 12 13 12 12 13 14 13 14 13 14 15 14 13 16 18 16 16 15 16 17 17 19 17
2 1 3 4 6 7 7 7 8 8 9 9 9 8 9 9 9 9 9 9 10 10 11 11 11 12 14 15 13 13 13 17 16 16 14 16 17 18 18 18 18 18 19
4 4 4 3 3 3 4 5 6 6 6 7 6 6 6 7 7 7 7 8 8 9 10 10 10 12 13 13 14 14 13 13 17 19 16 15 16 16 15 18 19 18 18
Wind_Direction
7 16 33 16 17 20 23 14 10 9 16 5 357 12 36 29 31 158 163 149 150 142 152 148 145 136 154 153 137 171 166 141 132 115 105 132 115 131 113 89 78 61 51
22 32 31 27 29 30 20 8 13 19 13 358 357 22 55 32 81 121 130 133 133 140 141 131 130 125 137 134 154 154 155 129 122 127 129 119 106 117 114 98 68 62 53
53 41 44 41 41 29 18 9 15 27 20 23 26 36 47 52 85 93 107 110 113 112 120 126 133 137 122 110 121 121 115 113 121 145 135 139 124 132 104 78 73 63 57
55 45 39 35 36 43 34 23 30 41 56 50 51 60 66 73 86 91 98 99 93 90 87 94 101 114 129 130 124 124 122 113 115 121 115 132 140 149 140 142 114 67 68
73 68 66 62 44 42 50 48 37 41 48 56 61 56 51 65 85 105 103 104 111 103 88 84 81 95 111 135 146 152 145 139 137 134 139 144 152 162 167 158 132 118 64
105 41 31 56 64 61 61 70 72 59 47 63 71 76 69 67 89 97 106 108 107 111 107 94 87 84 82 77 81 102 141 149 154 146 155 162 162 171 153 154 138 134 110
150 58 32 34 46 63 73 73 75 83 84 85 83 83 82 77 89 95 104 106 107 112 115 114 101 90 98 98 82 77 68 70 156 162 166 169 167 174 160 159 160 156 147
179 162 157 56 51 24 65 77 85 84 91 95 95 88 80 67 83 95 98 102 104 102 112 123 125 120 116 118 107 90 75 60 69 108 144 152 158 165 162 164 157 123 98
180 179 173 161 148 93 63 49 55 90 88 83 91 103 108 95 94 112 113 109 104 105 121 126 128 127 128 121 121 113 96 80 78 89 95 109 119 135 150 136 153 150 147
190 186 177 168 158 147 111 69 7 30 111 106 97 97 110 109 99 122 128 132 132 127 105 117 130 126 135 149 148 145 135 137 115 101 97 91 95 109 128 170 162 161 136
183 174 174 174 166 158 147 132 113 85 66 78 98 91 111 140 131 149 161 164 161 158 152 146 137 133 143 156 161 159 153 150 132 124 116 105 95 98 95 103 139 162 180
178 177 180 176 167 169 168 155 152 149 144 130 142 149 305 241 195 197 189 183 167 165 172 164 157 156 154 155 156 151 145 140 136 130 127 125 134 137 112 112 123 127 123
182 189 187 181 180 176 177 182 176 177 187 203 219 242 227 230 236 223 211 184 186 182 175 174 167 165 161 164 162 159 155 160 157 159 166 170 180 155 132 110 93 90 81
197 200 197 196 192 197 197 191 195 206 212 218 221 232 240 242 242 248 228 190 187 167 167 166 164 162 166 162 155 152 170 181 184 187 184 160 140 157 163 152 162 163 124
203 205 205 208 209 212 215 213 215 220 209 222 229 227 225 241 241 222 208 203 193 183 157 155 172 174 175 178 180 187 198 218 225 219 196 182 182 182 187 179 159 189 193
205 207 210 211 214 219 226 243 242 243 231 231 232 223 230 228 211 210 202 200 198 174 167 196 202 201 208 215 217 216 218 219 223 230 225 210 204 200 196 194 190 202 211
216 214 210 210 217 222 224 232 251 250 239 240 237 229 226 234 221 209 195 196 198 192 211 224 225 215 219 224 222 224 223 216 205 210 214 220 218 212 204 207 208 213 219
217 215 213 214 216 220 226 232 233 245 251 247 238 237 233 225 225 213 196 186 195 209 218 226 228 228 229 226 225 225 225 217 216 212 210 209 204 209 211 220 216 222 226
212 219 218 220 221 223 224 233 237 243 249 254 257 247 234 235 227 219 210 210 208 209 213 221 223 225 224 226 231 233 231 226 220 225 230 225 216 208 218 217 217 218 218
213 214 215 221 226 233 234 235 239 242 247 248 246 246 228 209 219 222 219 220 222 221 217 222 222 221 215 217 220 223 233 233 226 223 224 218 215 212 220 220 218 222 221
202 207 210 214 227 232 232 240 242 244 251 251 248 227 216 220 222 219 221 222 225 226 224 223 227 224 220 215 215 219 224 228 223 227 224 220 213 220 217 219 221 221 223
208 195 205 216 215 230 238 238 240 246 251 258 261 246 234 226 230 227 225 228 227 228 225 219 223 224 219 215 214 215 222 227 220 218 222 219 216 223 221 220 219 219 222
259 239 222 222 226 230 236 236 239 242 250 255 259 264 256 243 233 234 238 235 231 230 222 219 229 233 225 221 217 214 218 223 220 213 218 218 220 221 219 226 225 223 220
355 293 278 265 250 248 247 247 245 246 254 259 264 267 265 261 258 253 248 251 252 252 242 232 231 233 234 227 227 226 226 228 214 215 211 216 221 219 221 223 224 227 227
40 301 282 293 289 280 276 273 267 267 266 266 270 271 269 270 269 271 270 266 264 267 270 264 254 250 251 254 239 228 228 226 219 215 213 218 221 218 222 227 226 226 226
28 34 33 11 345 331 308 296 296 287 273 271 274 275 281 281 283 279 282 279 270 266 265 265 265 262 262 259 259 260 259 252 233 226 222 221 224 227 225 227 228 227 229